Saranac Lake, NY

6:39 AM EDT on April 25, 2017 (GMT -0400)
Adirondack Regional

Weather History for KSLK - October, 2012

Change the Weather History Date:

Saturday, October 20, 2012

  Actual Average Record
Temperature  
Mean Temperature 47 °F 41 °F  
Max Temperature 60 °F 52 °F 75 °F (1963)
Min Temperature 34 °F 30 °F 17 °F (1970)
Degree Days  
Heating Degree Days 18 24  
Month to date heating degree days 394 423  
Since 1 July heating degree days 908 1008  
Cooling Degree Days 0 0  
Month to date cooling degree days 0 0  
Year to date cooling degree days 155 114  
Moisture  
Dew Point 47 °F    
Average Humidity 81    
Maximum Humidity 100    
Minimum Humidity 62    
Precipitation  
Precipitation 0.15 in 0.13 in 1.05 in (2006)
Month to date precipitation 3.87 2.57  
Year to date precipitation 29.49 30.40  
Sea Level Pressure  
Sea Level Pressure 29.65 in    
Wind  
Wind Speed 5 mph (SW)    
Max Wind Speed 14 mph    
Max Gust Speed 18 mph    
Visibility 6 miles    
Events Fog , Rain    
T = Trace of Precipitation, MM = Missing Value Source: NWS Daily Summary

Daily Weather History Graph

Daily Weather History Graph

Search for Another Location

Airport or City:

Trip Planner

Search our weather history database for the weather conditions in past years. The results will help you decide how hot, cold, wet, or windy it might be!

Date:

Astronomy

Oct. 20, 2012 Rise Set
Actual Time 7:18 AM EDT 6:03 PM EDT
Civil Twilight 6:49 AM EDT 6:33 PM EDT
Nautical Twilight 6:15 AM EDT 7:06 PM EDT
Astronomical Twilight 5:41 AM EDT 7:40 PM EDT
Moon 12:59 PM EDT (10/20) 10:40 PM EDT (10/20)
Length of Visible Light 11h 43m
Length of Day
10h 44m
Waxing Crescent, 34% of the Moon is Illuminated
Oct 20
Waxing Crescent
Oct 21
First Quarter
Oct 29
Full
Nov 6
Last Quarter
Nov 13
New

Hourly Weather History & Observations

Time (EDT) Temp. Windchill Dew Point Humidity Pressure Visibility Wind Dir Wind Speed Gust Speed Precip Events Conditions
12:51 AM 52.0 °F - 52.0 °F 100% 29.64 in 0.2 mi NE 5.8 mph - N/A Fog Fog
1:48 AM 51.8 °F - 51.8 °F 100% 29.65 in 0.5 mi Variable 3.5 mph - 0.03 in Fog , Rain Rain
1:51 AM 51.1 °F - 51.1 °F 100% 29.65 in 0.8 mi South 3.5 mph - 0.04 in Rain Rain
1:56 AM 51.8 °F - 51.8 °F 100% 29.64 in 1.2 mi Calm Calm - 0.01 in Rain Rain
2:05 AM 51.8 °F - 51.8 °F 100% 29.63 in 1.8 mi NE 3.5 mph - 0.07 in Rain Rain
2:11 AM 51.8 °F - 51.8 °F 100% 29.63 in 3.0 mi ESE 5.8 mph - 0.09 in Rain Rain
2:18 AM 51.8 °F - 51.8 °F 100% 29.63 in 4.0 mi Calm Calm - 0.09 in Rain Light Rain
2:51 AM 52.0 °F - 51.1 °F 97% 29.62 in 10.0 mi Calm Calm - 0.10 in Rain Light Rain
3:51 AM 51.1 °F - 51.1 °F 100% 29.61 in 9.0 mi Calm Calm - 0.01 in   Mostly Cloudy
4:15 AM 50.0 °F - 50.0 °F 100% 29.61 in 1.8 mi Calm Calm - N/A   Overcast
4:39 AM 48.2 °F - 48.2 °F 100% 29.62 in 0.5 mi Calm Calm - N/A Fog Fog
4:51 AM 48.0 °F - 48.0 °F 100% 29.63 in 1.2 mi Calm Calm - N/A   Scattered Clouds
4:55 AM 46.4 °F - 46.4 °F 100% 29.62 in 0.8 mi Calm Calm - N/A   Mostly Cloudy
5:17 AM 48.2 °F - 46.4 °F 93% 29.62 in 1.2 mi Calm Calm - N/A   Mostly Cloudy
5:28 AM 48.2 °F - 48.2 °F 100% 29.63 in 3.0 mi Calm Calm - N/A   Mostly Cloudy
5:38 AM 46.4 °F - 46.4 °F 100% 29.63 in 1.8 mi Calm Calm - N/A   Mostly Cloudy
5:51 AM 46.0 °F - 46.0 °F 100% 29.64 in 1.0 mi Calm Calm - N/A   Mostly Cloudy
6:28 AM 46.4 °F - 46.4 °F 100% 29.64 in 3.0 mi Calm Calm - N/A   Mostly Cloudy
6:51 AM 46.0 °F - 45.0 °F 96% 29.65 in 10.0 mi Calm Calm - N/A   Overcast
7:05 AM 46.4 °F - 46.4 °F 100% 29.64 in 2.5 mi Calm Calm - N/A   Mostly Cloudy
7:10 AM 46.4 °F - 46.4 °F 100% 29.64 in 0.8 mi Calm Calm - N/A   Mostly Cloudy
7:33 AM 42.8 °F - 42.8 °F 100% 29.65 in 0.2 mi Calm Calm - N/A Fog Fog
7:46 AM 46.4 °F - 46.4 °F 100% 29.65 in 0.5 mi Calm Calm - N/A Fog Fog
7:49 AM 46.4 °F - 46.4 °F 100% 29.65 in 1.2 mi Calm Calm - N/A   Clear
7:51 AM 46.9 °F - 46.9 °F 100% 29.67 in 4.0 mi Calm Calm - N/A   Clear
8:16 AM 48.2 °F - 48.2 °F 100% 29.65 in 7.0 mi Calm Calm - N/A   Mostly Cloudy
8:28 AM 50.0 °F - 50.0 °F 100% 29.66 in 10.0 mi SW 3.5 mph - N/A   Scattered Clouds
8:51 AM 51.1 °F - 50.0 °F 96% 29.67 in 10.0 mi WSW 4.6 mph - N/A   Scattered Clouds
9:00 AM 51.8 °F - 50.0 °F 94% 29.66 in 10.0 mi SW 3.5 mph - N/A   Mostly Cloudy
9:51 AM 54.0 °F - 50.0 °F 86% 29.66 in 10.0 mi South 5.8 mph - N/A   Mostly Cloudy
10:51 AM 55.0 °F - 48.9 °F 80% 29.67 in 10.0 mi SSW 13.8 mph 18.4 mph N/A   Overcast
11:09 AM 55.4 °F - 48.2 °F 77% 29.65 in 10.0 mi SW 8.1 mph - N/A   Scattered Clouds
12:51 PM 55.9 °F - 46.0 °F 69% 29.62 in 10.0 mi West 3.5 mph - N/A   Mostly Cloudy
1:15 PM 59.0 °F - 46.4 °F 63% 29.61 in 10.0 mi Variable 4.6 mph - N/A   Mostly Cloudy
1:27 PM 59.0 °F - 46.4 °F 63% 29.61 in 7.0 mi SW 8.1 mph - N/A   Scattered Clouds
1:51 PM 57.9 °F - 45.0 °F 62% 29.61 in 10.0 mi WSW 4.6 mph - N/A   Partly Cloudy
2:51 PM 57.0 °F - 44.1 °F 62% 29.61 in 10.0 mi SW 9.2 mph - N/A   Overcast
3:51 PM 53.1 °F - 46.0 °F 77% 29.64 in 10.0 mi WSW 8.1 mph 18.4 mph 0.00 in   Mostly Cloudy
4:00 PM 53.6 °F - 44.6 °F 72% 29.63 in 10.0 mi West 10.4 mph - N/A   Mostly Cloudy
4:43 PM 51.8 °F - 44.6 °F 76% 29.63 in 10.0 mi Variable 4.6 mph - N/A   Overcast
6:51 PM 48.0 °F - 41.0 °F 77% 29.69 in 10.0 mi WSW 5.8 mph - N/A   Scattered Clouds
7:51 PM 43.0 °F 41.3 °F 39.9 °F 89% 29.71 in 10.0 mi WSW 3.5 mph - N/A   Clear
8:51 PM 42.1 °F 38.4 °F 37.9 °F 85% 29.71 in 10.0 mi SW 5.8 mph - N/A   Clear
9:51 PM 42.1 °F 39.2 °F 37.9 °F 85% 29.71 in 10.0 mi WSW 4.6 mph - N/A   Clear
10:51 PM 39.9 °F 37.8 °F 37.9 °F 93% 29.71 in 10.0 mi SSW 3.5 mph - N/A   Scattered Clouds
11:51 PM 37.0 °F - 36.0 °F 96% 29.70 in 8.0 mi Calm Calm - N/A   Clear